Year,Month,Day,Hour,Minute,Value (Times are PST for temperature in C)
2014,07,17,00,00,17.80
2014,07,17,00,01,17.80
2014,07,17,00,02,17.90
2014,07,17,00,03,18.00
2014,07,17,00,04,18.00
2014,07,17,00,05,18.00
2014,07,17,00,06,18.10
2014,07,17,00,07,18.10
2014,07,17,00,08,18.10
2014,07,17,00,09,18.10
2014,07,17,00,10,18.20
2014,07,17,00,11,18.20
2014,07,17,00,12,18.20
2014,07,17,00,13,18.20
2014,07,17,00,14,18.20
2014,07,17,00,15,18.20
2014,07,17,00,16,18.20
2014,07,17,00,17,18.20
2014,07,17,00,18,18.20
2014,07,17,00,19,18.20
2014,07,17,00,20,18.20
2014,07,17,00,21,18.30
2014,07,17,00,22,18.30
2014,07,17,00,23,18.30
2014,07,17,00,24,18.40
2014,07,17,00,25,18.40
2014,07,17,00,26,18.40
2014,07,17,00,27,18.50
2014,07,17,00,28,18.50
2014,07,17,00,29,18.50
2014,07,17,00,30,18.60
2014,07,17,00,31,18.60
2014,07,17,00,32,18.60
2014,07,17,00,33,18.60
2014,07,17,00,34,18.70
2014,07,17,00,35,18.70
2014,07,17,00,36,18.70
2014,07,17,00,37,18.70
2014,07,17,00,38,18.80
2014,07,17,00,39,18.80
2014,07,17,00,40,18.80
2014,07,17,00,41,18.80
2014,07,17,00,42,18.80
2014,07,17,00,43,18.80
2014,07,17,00,44,18.90
2014,07,17,00,45,18.90
2014,07,17,00,46,18.90
2014,07,17,00,47,18.90
2014,07,17,00,48,18.90
2014,07,17,00,49,18.90
2014,07,17,00,50,19.00
2014,07,17,00,51,18.90
2014,07,17,00,52,18.90
2014,07,17,00,53,18.90
2014,07,17,00,54,18.90
2014,07,17,00,55,18.80
2014,07,17,00,56,18.80
2014,07,17,00,57,18.80
2014,07,17,00,58,18.80
2014,07,17,00,59,18.80
2014,07,17,01,00,18.80
2014,07,17,01,01,18.80
2014,07,17,01,02,18.80
2014,07,17,01,03,18.80
2014,07,17,01,04,18.80
2014,07,17,01,05,18.80
2014,07,17,01,06,18.80
2014,07,17,01,07,18.80
2014,07,17,01,08,18.80
2014,07,17,01,09,18.80
2014,07,17,01,10,18.80
2014,07,17,01,11,18.80
2014,07,17,01,12,18.90
2014,07,17,01,13,18.90
2014,07,17,01,14,18.90
2014,07,17,01,15,18.90
2014,07,17,01,16,18.90
2014,07,17,01,17,18.90
2014,07,17,01,18,18.90
2014,07,17,01,19,18.90
2014,07,17,01,20,18.90
2014,07,17,01,21,19.00
2014,07,17,01,22,19.00
2014,07,17,01,23,19.10
2014,07,17,01,24,19.10
2014,07,17,01,25,19.10
2014,07,17,01,26,19.10
2014,07,17,01,27,19.20
2014,07,17,01,28,19.20
2014,07,17,01,29,19.20
2014,07,17,01,30,19.20
2014,07,17,01,31,19.20
2014,07,17,01,32,19.20
2014,07,17,01,33,19.20
2014,07,17,01,34,19.30
2014,07,17,01,35,19.30
2014,07,17,01,36,19.30
2014,07,17,01,37,19.30
2014,07,17,01,38,19.30
2014,07,17,01,39,19.40
2014,07,17,01,40,19.40
2014,07,17,01,41,19.40
2014,07,17,01,42,19.30
2014,07,17,01,43,19.30
2014,07,17,01,44,19.30
2014,07,17,01,45,19.30
2014,07,17,01,46,19.30
2014,07,17,01,47,19.30
2014,07,17,01,48,19.40
2014,07,17,01,49,19.40
2014,07,17,01,50,19.30
2014,07,17,01,51,19.30
2014,07,17,01,52,19.30
2014,07,17,01,53,19.30
2014,07,17,01,54,19.30
2014,07,17,01,55,19.30
2014,07,17,01,56,19.30
2014,07,17,01,57,19.30
2014,07,17,01,58,19.30
2014,07,17,01,59,19.30
2014,07,17,02,00,19.30
2014,07,17,02,01,19.30
2014,07,17,02,02,19.30
2014,07,17,02,03,19.30
2014,07,17,02,04,19.30
2014,07,17,02,05,19.30
2014,07,17,02,06,19.30
2014,07,17,02,07,19.30
2014,07,17,02,08,19.30
2014,07,17,02,09,19.30
2014,07,17,02,10,19.30
2014,07,17,02,11,19.30
2014,07,17,02,12,19.30
2014,07,17,02,13,19.30
2014,07,17,02,14,19.30
2014,07,17,02,15,19.30
2014,07,17,02,16,19.20
2014,07,17,02,17,19.20
2014,07,17,02,18,19.10
2014,07,17,02,19,19.10
2014,07,17,02,20,19.20
2014,07,17,02,21,19.20
2014,07,17,02,22,19.20
2014,07,17,02,23,19.30
2014,07,17,02,24,19.30
2014,07,17,02,25,19.30
2014,07,17,02,26,19.30
2014,07,17,02,27,19.30
2014,07,17,02,28,19.30
2014,07,17,02,29,19.30
2014,07,17,02,30,19.30
2014,07,17,02,31,19.30
2014,07,17,02,32,19.30
2014,07,17,02,33,19.30
2014,07,17,02,34,19.30
2014,07,17,02,35,19.30
2014,07,17,02,36,19.30
2014,07,17,02,37,19.30
2014,07,17,02,38,19.30
2014,07,17,02,39,19.30
2014,07,17,02,40,19.30
2014,07,17,02,41,19.30
2014,07,17,02,42,19.30
2014,07,17,02,43,19.30
2014,07,17,02,44,19.20
2014,07,17,02,45,19.20
2014,07,17,02,46,19.20
2014,07,17,02,47,19.20
2014,07,17,02,48,19.20
2014,07,17,02,49,19.10
2014,07,17,02,50,19.10
2014,07,17,02,51,19.10
2014,07,17,02,52,19.10
2014,07,17,02,53,19.10
2014,07,17,02,54,19.10
2014,07,17,02,55,19.10
2014,07,17,02,56,19.10
2014,07,17,02,57,19.10
2014,07,17,02,58,19.10
2014,07,17,02,59,19.10
2014,07,17,03,00,19.10
2014,07,17,03,01,19.00
2014,07,17,03,02,19.00
2014,07,17,03,03,18.90
2014,07,17,03,04,18.80
2014,07,17,03,05,18.80
2014,07,17,03,06,18.70
2014,07,17,03,07,18.70
2014,07,17,03,08,18.60
2014,07,17,03,09,18.60
2014,07,17,03,10,18.60
2014,07,17,03,11,18.50
2014,07,17,03,12,18.50
2014,07,17,03,13,18.40
2014,07,17,03,14,18.30
2014,07,17,03,15,18.20
2014,07,17,03,16,18.10
2014,07,17,03,17,18.10
2014,07,17,03,18,18.00
2014,07,17,03,19,17.90
2014,07,17,03,20,17.90
2014,07,17,03,21,17.80
2014,07,17,03,22,17.80
2014,07,17,03,23,17.70
2014,07,17,03,24,17.70
2014,07,17,03,25,17.60
2014,07,17,03,26,17.60
2014,07,17,03,27,17.60
2014,07,17,03,28,17.50
2014,07,17,03,29,17.50
2014,07,17,03,30,17.50
2014,07,17,03,31,17.40
2014,07,17,03,32,17.40
2014,07,17,03,33,17.30
2014,07,17,03,34,17.30
2014,07,17,03,35,17.30
2014,07,17,03,36,17.30
2014,07,17,03,37,17.30
2014,07,17,03,38,17.20
2014,07,17,03,39,17.20
2014,07,17,03,40,17.10
2014,07,17,03,41,17.10
2014,07,17,03,42,17.10
2014,07,17,03,43,17.00
2014,07,17,03,44,17.00
2014,07,17,03,45,16.90
2014,07,17,03,46,16.90
2014,07,17,03,47,16.90
2014,07,17,03,48,16.90
2014,07,17,03,49,16.80
2014,07,17,03,50,16.80
2014,07,17,03,51,16.80
2014,07,17,03,52,16.80
2014,07,17,03,53,16.70
2014,07,17,03,54,16.70
2014,07,17,03,55,16.70
2014,07,17,03,56,16.60
2014,07,17,03,57,16.60
2014,07,17,03,58,16.60
2014,07,17,03,59,16.50
2014,07,17,04,00,16.50
2014,07,17,04,01,16.40
2014,07,17,04,02,16.40
2014,07,17,04,03,16.40
2014,07,17,04,04,16.30
2014,07,17,04,05,16.30
2014,07,17,04,06,16.30
2014,07,17,04,07,16.20
2014,07,17,04,08,16.20
2014,07,17,04,09,16.20
2014,07,17,04,10,16.10
2014,07,17,04,11,16.10
2014,07,17,04,12,16.10
2014,07,17,04,13,16.00
2014,07,17,04,14,16.00
2014,07,17,04,15,16.00
2014,07,17,04,16,15.90
2014,07,17,04,17,15.90
2014,07,17,04,18,15.90
2014,07,17,04,19,15.90
2014,07,17,04,20,15.80
2014,07,17,04,21,15.80
2014,07,17,04,22,15.80
2014,07,17,04,23,15.80
2014,07,17,04,24,15.70
2014,07,17,04,25,15.70
2014,07,17,04,26,15.70
2014,07,17,04,27,15.70
2014,07,17,04,28,15.70
2014,07,17,04,29,15.70
2014,07,17,04,30,15.60
2014,07,17,04,31,15.60
2014,07,17,04,32,15.60
2014,07,17,04,33,15.60
2014,07,17,04,34,15.60
2014,07,17,04,35,15.60
2014,07,17,04,36,15.60
2014,07,17,04,37,15.50
2014,07,17,04,38,15.50
2014,07,17,04,39,15.50
2014,07,17,04,40,15.40
2014,07,17,04,41,15.40
2014,07,17,04,42,15.40
2014,07,17,04,43,15.40
2014,07,17,04,44,15.30
2014,07,17,04,45,15.30
2014,07,17,04,46,15.30
2014,07,17,04,47,15.30
2014,07,17,04,48,15.30
2014,07,17,04,49,15.20
2014,07,17,04,50,15.20
2014,07,17,04,51,15.20
2014,07,17,04,52,15.20
2014,07,17,04,53,15.20
2014,07,17,04,54,15.20
2014,07,17,04,55,15.10
2014,07,17,04,56,15.10
2014,07,17,04,57,15.10
2014,07,17,04,58,15.00
2014,07,17,04,59,15.00
2014,07,17,05,00,15.00
2014,07,17,05,01,14.90
2014,07,17,05,02,14.90
2014,07,17,05,03,14.90
2014,07,17,05,04,14.80
2014,07,17,05,05,14.80
2014,07,17,05,06,14.80
2014,07,17,05,07,14.80
2014,07,17,05,08,14.80
2014,07,17,05,09,14.80
2014,07,17,05,10,14.80
2014,07,17,05,11,14.80
2014,07,17,05,12,14.70
2014,07,17,05,13,14.70
2014,07,17,05,14,14.70
2014,07,17,05,15,14.60
2014,07,17,05,16,14.60
2014,07,17,05,17,14.60
2014,07,17,05,18,14.60
2014,07,17,05,19,14.50
2014,07,17,05,20,14.50
2014,07,17,05,21,14.40
2014,07,17,05,22,14.40
2014,07,17,05,23,14.40
2014,07,17,05,24,14.40
2014,07,17,05,25,14.40
2014,07,17,05,26,14.30
2014,07,17,05,27,14.30
2014,07,17,05,28,14.30
2014,07,17,05,29,14.30
2014,07,17,05,30,14.30
2014,07,17,05,31,14.30
2014,07,17,05,32,14.30
2014,07,17,05,33,14.30
2014,07,17,05,34,14.40
2014,07,17,05,35,14.40
2014,07,17,05,36,14.40
2014,07,17,05,37,14.40
2014,07,17,05,38,14.40
2014,07,17,05,39,14.30
2014,07,17,05,40,14.30
2014,07,17,05,41,14.30
2014,07,17,05,42,14.30
2014,07,17,05,43,14.30
2014,07,17,05,44,14.30
2014,07,17,05,45,14.30
2014,07,17,05,46,14.30
2014,07,17,05,47,14.30
2014,07,17,05,48,14.30
2014,07,17,05,49,14.30
2014,07,17,05,50,14.20
2014,07,17,05,51,14.20
2014,07,17,05,52,14.20
2014,07,17,05,53,14.20
2014,07,17,05,54,14.20
2014,07,17,05,55,14.20
2014,07,17,05,56,14.20
2014,07,17,05,57,14.20
2014,07,17,05,58,14.20
2014,07,17,05,59,14.20
2014,07,17,06,00,14.10
2014,07,17,06,01,14.10
2014,07,17,06,02,14.10
2014,07,17,06,03,14.10
2014,07,17,06,04,14.10
2014,07,17,06,05,14.10
2014,07,17,06,06,14.10
2014,07,17,06,07,14.10
2014,07,17,06,08,14.10
2014,07,17,06,09,14.10
2014,07,17,06,10,14.10
2014,07,17,06,11,14.10
2014,07,17,06,12,14.10
2014,07,17,06,13,14.10
2014,07,17,06,14,14.10
2014,07,17,06,15,14.10
2014,07,17,06,16,14.00
2014,07,17,06,17,14.00
2014,07,17,06,18,14.00
2014,07,17,06,19,14.00
2014,07,17,06,20,14.00
2014,07,17,06,21,14.00
2014,07,17,06,22,14.00
2014,07,17,06,23,14.00
2014,07,17,06,24,14.00
2014,07,17,06,25,14.00
2014,07,17,06,26,14.10
2014,07,17,06,27,14.10
2014,07,17,06,28,14.10
2014,07,17,06,29,14.10
2014,07,17,06,30,14.10
2014,07,17,06,31,14.10
2014,07,17,06,32,14.10
2014,07,17,06,33,14.10
2014,07,17,06,34,14.10
2014,07,17,06,35,14.10
2014,07,17,06,36,14.10
2014,07,17,06,37,14.10
2014,07,17,06,38,14.20
2014,07,17,06,39,14.20
2014,07,17,06,40,14.20
2014,07,17,06,41,14.20
2014,07,17,06,42,14.30
2014,07,17,06,43,14.30
2014,07,17,06,44,14.30
2014,07,17,06,45,14.30
2014,07,17,06,46,14.40
2014,07,17,06,47,14.40
2014,07,17,06,48,14.40
2014,07,17,06,49,14.50
2014,07,17,06,50,14.50
2014,07,17,06,51,14.50
2014,07,17,06,52,14.50
2014,07,17,06,53,14.50
2014,07,17,06,54,14.50
2014,07,17,06,55,14.50
2014,07,17,06,56,14.60
2014,07,17,06,57,14.60
2014,07,17,06,58,14.60
2014,07,17,06,59,14.60
2014,07,17,07,00,14.60
2014,07,17,07,01,14.60
2014,07,17,07,02,14.70
2014,07,17,07,03,14.70
2014,07,17,07,04,14.70
2014,07,17,07,05,14.70
2014,07,17,07,06,14.80
2014,07,17,07,07,14.90
2014,07,17,07,08,14.90
2014,07,17,07,09,14.90
2014,07,17,07,10,15.00
2014,07,17,07,11,15.10
2014,07,17,07,12,15.10
2014,07,17,07,13,15.10
2014,07,17,07,14,15.20
2014,07,17,07,15,15.20
2014,07,17,07,16,15.20
2014,07,17,07,17,15.20
2014,07,17,07,18,15.20
2014,07,17,07,19,15.20
2014,07,17,07,20,15.30
2014,07,17,07,21,15.30
2014,07,17,07,22,15.30
2014,07,17,07,23,15.30
2014,07,17,07,24,15.30
2014,07,17,07,25,15.40
2014,07,17,07,26,15.40
2014,07,17,07,27,15.50
2014,07,17,07,28,15.60
2014,07,17,07,29,15.70
2014,07,17,07,30,15.70
2014,07,17,07,31,15.80
2014,07,17,07,32,15.90
2014,07,17,07,33,16.00
2014,07,17,07,34,16.10
2014,07,17,07,35,16.20
2014,07,17,07,36,16.30
2014,07,17,07,37,16.30
2014,07,17,07,38,16.40
2014,07,17,07,39,16.50
2014,07,17,07,40,16.50
2014,07,17,07,41,16.60
2014,07,17,07,42,16.70
2014,07,17,07,43,16.70
2014,07,17,07,44,16.80
2014,07,17,07,45,16.90
2014,07,17,07,46,17.00
2014,07,17,07,47,17.10
2014,07,17,07,48,17.20
2014,07,17,07,49,17.30
2014,07,17,07,50,17.40
2014,07,17,07,51,17.50
2014,07,17,07,52,17.60
2014,07,17,07,53,17.60
2014,07,17,07,54,17.70
2014,07,17,07,55,17.70
2014,07,17,07,56,17.80
2014,07,17,07,57,17.90
2014,07,17,07,58,18.00
2014,07,17,07,59,18.10
2014,07,17,08,00,18.20
2014,07,17,08,01,18.30
2014,07,17,08,02,18.40
2014,07,17,08,03,18.50
2014,07,17,08,04,18.50
2014,07,17,08,05,18.60
2014,07,17,08,06,18.70
2014,07,17,08,07,18.70
2014,07,17,08,08,18.70
2014,07,17,08,09,18.70
2014,07,17,08,10,18.60
2014,07,17,08,11,18.60
2014,07,17,08,12,18.60
2014,07,17,08,13,18.60
2014,07,17,08,14,18.60
2014,07,17,08,15,18.60
2014,07,17,08,16,18.70
2014,07,17,08,17,18.70
2014,07,17,08,18,18.70
2014,07,17,08,19,18.80
2014,07,17,08,20,18.80
2014,07,17,08,21,18.80
2014,07,17,08,22,18.70
2014,07,17,08,23,18.70
2014,07,17,08,24,18.70
2014,07,17,08,25,18.70
2014,07,17,08,26,18.60
2014,07,17,08,27,18.60
2014,07,17,08,28,18.60
2014,07,17,08,29,18.60
2014,07,17,08,30,18.60
2014,07,17,08,31,18.50
2014,07,17,08,32,18.40
2014,07,17,08,33,18.40
2014,07,17,08,34,18.40
2014,07,17,08,35,18.40
2014,07,17,08,36,18.50
2014,07,17,08,37,18.60
2014,07,17,08,38,18.60
2014,07,17,08,39,18.70
2014,07,17,08,40,18.70
2014,07,17,08,41,18.70
2014,07,17,08,42,18.70
2014,07,17,08,43,18.70
2014,07,17,08,44,18.70
2014,07,17,08,45,18.60
2014,07,17,08,46,18.60
2014,07,17,08,47,18.60
2014,07,17,08,48,18.50
2014,07,17,08,49,18.50
2014,07,17,08,50,18.50
2014,07,17,08,51,18.50
2014,07,17,08,52,18.50
2014,07,17,08,53,18.50
2014,07,17,08,54,18.60
2014,07,17,08,55,18.60
2014,07,17,08,56,18.70
2014,07,17,08,57,18.80
2014,07,17,08,58,18.80
2014,07,17,08,59,18.90
2014,07,17,09,00,18.90
2014,07,17,09,01,18.90
2014,07,17,09,02,18.90
2014,07,17,09,03,18.90
2014,07,17,09,04,18.90
2014,07,17,09,05,18.80
2014,07,17,09,06,18.80
2014,07,17,09,07,18.80
2014,07,17,09,08,18.80
2014,07,17,09,09,18.80
2014,07,17,09,10,18.80
2014,07,17,09,11,18.80
2014,07,17,09,12,18.80
2014,07,17,09,13,18.80
2014,07,17,09,14,18.80
2014,07,17,09,15,18.80
2014,07,17,09,16,18.80
2014,07,17,09,17,18.70
2014,07,17,09,18,18.70
2014,07,17,09,19,18.70
2014,07,17,09,20,18.70
2014,07,17,09,21,18.80
2014,07,17,09,22,18.80
2014,07,17,09,23,18.80
2014,07,17,09,24,18.80
2014,07,17,09,25,18.90
2014,07,17,09,26,18.90
2014,07,17,09,27,18.90
2014,07,17,09,28,18.90
2014,07,17,09,29,18.90
2014,07,17,09,30,19.00
2014,07,17,09,31,19.00
2014,07,17,09,32,18.90
2014,07,17,09,33,18.90
2014,07,17,09,34,18.90
2014,07,17,09,35,19.00
2014,07,17,09,36,19.10
2014,07,17,09,37,19.20
2014,07,17,09,38,19.10
2014,07,17,09,39,19.00
2014,07,17,09,40,18.90
2014,07,17,09,41,18.80
2014,07,17,09,42,18.80
2014,07,17,09,43,18.80
2014,07,17,09,44,18.80
2014,07,17,09,45,18.80
2014,07,17,09,46,18.70
2014,07,17,09,47,18.70
2014,07,17,09,48,18.80
2014,07,17,09,49,18.80
2014,07,17,09,50,18.70
2014,07,17,09,51,18.70
2014,07,17,09,52,18.70
2014,07,17,09,53,18.70
2014,07,17,09,54,18.70
2014,07,17,09,55,18.70
2014,07,17,09,56,18.70
2014,07,17,09,57,18.80
2014,07,17,09,58,18.80
2014,07,17,09,59,18.70
2014,07,17,10,00,18.70
2014,07,17,10,01,18.70
2014,07,17,10,02,18.70
2014,07,17,10,03,18.70
2014,07,17,10,04,18.80
2014,07,17,10,05,18.80
2014,07,17,10,06,18.90
2014,07,17,10,07,19.00
2014,07,17,10,08,19.00
2014,07,17,10,09,19.10
2014,07,17,10,10,19.20
2014,07,17,10,11,19.10
2014,07,17,10,12,19.10
2014,07,17,10,13,19.00
2014,07,17,10,14,19.00
2014,07,17,10,15,19.10
2014,07,17,10,16,19.10
2014,07,17,10,17,19.20
2014,07,17,10,18,19.20
2014,07,17,10,19,19.30
2014,07,17,10,20,19.30
2014,07,17,10,21,19.30
2014,07,17,10,22,19.40
2014,07,17,10,23,19.40
2014,07,17,10,24,19.40
2014,07,17,10,25,19.40
2014,07,17,10,26,19.40
2014,07,17,10,27,19.40
2014,07,17,10,28,19.40
2014,07,17,10,29,19.50
2014,07,17,10,30,19.50
2014,07,17,10,31,19.50
2014,07,17,10,32,19.40
2014,07,17,10,33,19.40
2014,07,17,10,34,19.40
2014,07,17,10,35,19.30
2014,07,17,10,36,19.20
2014,07,17,10,37,19.20
2014,07,17,10,38,19.20
2014,07,17,10,39,19.10
2014,07,17,10,40,19.10
2014,07,17,10,41,19.00
2014,07,17,10,42,19.00
2014,07,17,10,43,19.00
2014,07,17,10,44,18.90
2014,07,17,10,45,18.90
2014,07,17,10,46,18.80
2014,07,17,10,47,18.60
2014,07,17,10,48,18.40
2014,07,17,10,49,18.30
2014,07,17,10,50,18.10
2014,07,17,10,51,18.00
2014,07,17,10,52,17.90
2014,07,17,10,53,17.90
2014,07,17,10,54,17.80
2014,07,17,10,55,17.80
2014,07,17,10,56,17.80
2014,07,17,10,57,17.80
2014,07,17,10,58,17.80
2014,07,17,10,59,17.80
2014,07,17,11,00,17.80
2014,07,17,11,01,17.90
2014,07,17,11,02,18.00
2014,07,17,11,03,18.10
2014,07,17,11,04,18.10
2014,07,17,11,05,18.20
2014,07,17,11,06,18.20
2014,07,17,11,07,18.20
2014,07,17,11,08,18.30
2014,07,17,11,09,18.20
2014,07,17,11,10,18.20
2014,07,17,11,11,18.10
2014,07,17,11,12,18.00
2014,07,17,11,13,17.90
2014,07,17,11,14,17.80
2014,07,17,11,15,17.70
2014,07,17,11,16,17.60
2014,07,17,11,17,17.50
2014,07,17,11,18,17.50
2014,07,17,11,19,17.50
2014,07,17,11,20,17.50
2014,07,17,11,21,17.40
2014,07,17,11,22,17.40
2014,07,17,11,23,17.30
2014,07,17,11,24,17.20
2014,07,17,11,25,17.20
2014,07,17,11,26,17.20
2014,07,17,11,27,17.20
2014,07,17,11,28,17.20
2014,07,17,11,29,17.20
2014,07,17,11,30,17.20
2014,07,17,11,31,17.20
2014,07,17,11,32,17.20
2014,07,17,11,33,17.20
2014,07,17,11,34,17.20
2014,07,17,11,35,17.10
2014,07,17,11,36,17.00
2014,07,17,11,37,17.00
2014,07,17,11,38,17.00
2014,07,17,11,39,17.00
2014,07,17,11,40,17.10
2014,07,17,11,41,17.10
2014,07,17,11,42,17.10
2014,07,17,11,43,17.20
2014,07,17,11,44,17.30
2014,07,17,11,45,17.40
2014,07,17,11,46,17.50
2014,07,17,11,47,17.70
2014,07,17,11,48,17.80
2014,07,17,11,49,17.90
2014,07,17,11,50,18.00
2014,07,17,11,51,18.00
2014,07,17,11,52,18.20
2014,07,17,11,53,18.30
2014,07,17,11,54,18.40
2014,07,17,11,55,18.20
2014,07,17,11,56,18.00
2014,07,17,11,57,17.80
2014,07,17,11,58,17.60
2014,07,17,11,59,17.50
2014,07,17,12,00,17.40
2014,07,17,12,01,17.40
2014,07,17,12,02,17.40
2014,07,17,12,03,17.50
2014,07,17,12,04,17.60
2014,07,17,12,05,17.70
2014,07,17,12,06,17.80
2014,07,17,12,07,17.80
2014,07,17,12,08,17.70
2014,07,17,12,09,17.60
2014,07,17,12,10,17.60
2014,07,17,12,11,17.40
2014,07,17,12,12,17.40
2014,07,17,12,13,17.30
2014,07,17,12,14,17.20
2014,07,17,12,15,17.20
2014,07,17,12,16,17.20
2014,07,17,12,17,17.20
2014,07,17,12,18,17.20
2014,07,17,12,19,17.30
2014,07,17,12,20,17.30
2014,07,17,12,21,17.30
2014,07,17,12,22,17.30
2014,07,17,12,23,17.30
2014,07,17,12,24,17.30
2014,07,17,12,25,17.40
2014,07,17,12,26,17.40
2014,07,17,12,27,17.40
2014,07,17,12,28,17.40
2014,07,17,12,29,17.50
2014,07,17,12,30,17.60
2014,07,17,12,31,17.70
2014,07,17,12,32,17.80
2014,07,17,12,33,17.80
2014,07,17,12,34,17.80
2014,07,17,12,35,17.80
2014,07,17,12,36,17.80
2014,07,17,12,37,17.70
2014,07,17,12,38,17.70
2014,07,17,12,39,17.70
2014,07,17,12,40,17.90
2014,07,17,12,41,17.90
2014,07,17,12,42,18.00
2014,07,17,12,43,18.10
2014,07,17,12,44,18.20
2014,07,17,12,45,18.30
2014,07,17,12,46,18.40
2014,07,17,12,47,18.40
2014,07,17,12,48,18.40
2014,07,17,12,49,18.40
2014,07,17,12,50,18.40
2014,07,17,12,51,18.40
2014,07,17,12,52,18.40
2014,07,17,12,53,18.50
2014,07,17,12,54,18.60
2014,07,17,12,55,18.50
2014,07,17,12,56,18.40
2014,07,17,12,57,18.30
2014,07,17,12,58,18.20
2014,07,17,12,59,18.30
2014,07,17,13,00,18.40
2014,07,17,13,01,18.50
2014,07,17,13,02,18.60
2014,07,17,13,03,18.60
2014,07,17,13,04,18.70
2014,07,17,13,05,18.80
2014,07,17,13,06,18.90
2014,07,17,13,07,19.00
2014,07,17,13,08,19.10
2014,07,17,13,09,19.00
2014,07,17,13,10,19.00
2014,07,17,13,11,19.00
2014,07,17,13,12,19.00
2014,07,17,13,13,19.10
2014,07,17,13,14,19.00
2014,07,17,13,15,18.90
2014,07,17,13,16,18.80
2014,07,17,13,17,18.70
2014,07,17,13,18,18.60
2014,07,17,13,19,18.70
2014,07,17,13,20,18.60
2014,07,17,13,21,18.60
2014,07,17,13,22,18.60
2014,07,17,13,23,18.70
2014,07,17,13,24,18.70
2014,07,17,13,25,18.80
2014,07,17,13,26,18.90
2014,07,17,13,27,18.90
2014,07,17,13,28,19.00
2014,07,17,13,29,19.00
2014,07,17,13,30,19.10
2014,07,17,13,31,19.00
2014,07,17,13,32,18.90
2014,07,17,13,33,18.80
2014,07,17,13,34,18.80
2014,07,17,13,35,18.70
2014,07,17,13,36,18.70
2014,07,17,13,37,18.70
2014,07,17,13,38,18.80
2014,07,17,13,39,18.80
2014,07,17,13,40,19.00
2014,07,17,13,41,19.10
2014,07,17,13,42,19.30
2014,07,17,13,43,19.40
2014,07,17,13,44,19.50
2014,07,17,13,45,19.70
2014,07,17,13,46,19.70
2014,07,17,13,47,19.70
2014,07,17,13,48,19.70
2014,07,17,13,49,19.60
2014,07,17,13,50,19.60
2014,07,17,13,51,19.60
2014,07,17,13,52,19.60
2014,07,17,13,53,19.60
2014,07,17,13,54,19.60
2014,07,17,13,55,19.60
2014,07,17,13,56,19.70
2014,07,17,13,57,19.80
2014,07,17,13,58,19.60
2014,07,17,13,59,19.50
2014,07,17,14,00,19.50
2014,07,17,14,01,19.40
2014,07,17,14,02,19.30
2014,07,17,14,03,19.30
2014,07,17,14,04,19.30
2014,07,17,14,05,19.30
2014,07,17,14,06,19.30
2014,07,17,14,07,19.30
2014,07,17,14,08,19.50
2014,07,17,14,09,19.60
2014,07,17,14,10,19.60
2014,07,17,14,11,19.50
2014,07,17,14,12,19.40
2014,07,17,14,13,19.50
2014,07,17,14,14,19.60
2014,07,17,14,15,19.60
2014,07,17,14,16,19.70
2014,07,17,14,17,19.80
2014,07,17,14,18,19.80
2014,07,17,14,19,19.90
2014,07,17,14,20,19.90
2014,07,17,14,21,20.00
2014,07,17,14,22,19.90
2014,07,17,14,23,19.90
2014,07,17,14,24,20.00
2014,07,17,14,25,20.00
2014,07,17,14,26,20.00
2014,07,17,14,27,20.10
2014,07,17,14,28,20.10
2014,07,17,14,29,20.10
2014,07,17,14,30,20.20
2014,07,17,14,31,20.30
2014,07,17,14,32,20.40
2014,07,17,14,33,20.60
2014,07,17,14,34,20.70
2014,07,17,14,35,20.80
2014,07,17,14,36,20.80
2014,07,17,14,37,20.80
2014,07,17,14,38,20.80
2014,07,17,14,39,20.70
2014,07,17,14,40,20.60
2014,07,17,14,41,20.50
2014,07,17,14,42,20.30
2014,07,17,14,43,20.20
2014,07,17,14,44,20.20
2014,07,17,14,45,20.20
2014,07,17,14,46,20.20
2014,07,17,14,47,20.20
2014,07,17,14,48,20.20
2014,07,17,14,49,20.20
2014,07,17,14,50,20.20
2014,07,17,14,51,20.30
2014,07,17,14,52,20.20
2014,07,17,14,53,20.20
2014,07,17,14,54,20.10
2014,07,17,14,55,20.10
2014,07,17,14,56,20.10
2014,07,17,14,57,20.00
2014,07,17,14,58,20.00
2014,07,17,14,59,19.90
2014,07,17,15,00,20.00
2014,07,17,15,01,20.00
2014,07,17,15,02,20.10
2014,07,17,15,03,20.20
2014,07,17,15,04,20.20
2014,07,17,15,05,20.30
2014,07,17,15,06,20.40
2014,07,17,15,07,20.40
2014,07,17,15,08,20.30
2014,07,17,15,09,20.20
2014,07,17,15,10,20.20
2014,07,17,15,11,20.20
2014,07,17,15,12,20.20
2014,07,17,15,13,20.20
2014,07,17,15,14,20.20
2014,07,17,15,15,20.30
2014,07,17,15,16,20.40
2014,07,17,15,17,20.50
2014,07,17,15,18,20.50
2014,07,17,15,19,20.60
2014,07,17,15,20,20.70
2014,07,17,15,21,20.80
2014,07,17,15,22,20.90
2014,07,17,15,23,20.80
2014,07,17,15,24,20.70
2014,07,17,15,25,20.60
2014,07,17,15,26,20.60
2014,07,17,15,27,20.60
2014,07,17,15,28,20.50
2014,07,17,15,29,20.40
2014,07,17,15,30,20.30
2014,07,17,15,31,20.20
2014,07,17,15,32,20.10
2014,07,17,15,33,20.10
2014,07,17,15,34,20.10
2014,07,17,15,35,20.10
2014,07,17,15,36,20.00
2014,07,17,15,37,20.10
2014,07,17,15,38,20.10
2014,07,17,15,39,20.20
2014,07,17,15,40,20.20
2014,07,17,15,41,20.10
2014,07,17,15,42,20.20
2014,07,17,15,43,20.20
2014,07,17,15,44,20.30
2014,07,17,15,45,20.40
2014,07,17,15,46,20.50
2014,07,17,15,47,20.50
2014,07,17,15,48,20.60
2014,07,17,15,49,20.70
2014,07,17,15,50,20.70
2014,07,17,15,51,20.70
2014,07,17,15,52,20.70
2014,07,17,15,53,20.60
2014,07,17,15,54,20.60
2014,07,17,15,55,20.60
2014,07,17,15,56,20.60
2014,07,17,15,57,20.60
2014,07,17,15,58,20.50
2014,07,17,15,59,20.50
2014,07,17,16,00,20.60
2014,07,17,16,01,20.70
2014,07,17,16,02,20.70
2014,07,17,16,03,20.70
2014,07,17,16,04,20.80
2014,07,17,16,05,20.90
2014,07,17,16,06,20.90
2014,07,17,16,07,20.90
2014,07,17,16,08,21.00
2014,07,17,16,09,21.10
2014,07,17,16,10,21.20
2014,07,17,16,11,21.20
2014,07,17,16,12,21.10
2014,07,17,16,13,21.00
2014,07,17,16,14,20.90
2014,07,17,16,15,20.80
2014,07,17,16,16,20.80
2014,07,17,16,17,20.80
2014,07,17,16,18,20.80
2014,07,17,16,19,20.70
2014,07,17,16,20,20.80
2014,07,17,16,21,20.90
2014,07,17,16,22,21.00
2014,07,17,16,23,21.10
2014,07,17,16,24,21.20
2014,07,17,16,25,21.30
2014,07,17,16,26,21.40
2014,07,17,16,27,21.40
2014,07,17,16,28,21.30
2014,07,17,16,29,21.30
2014,07,17,16,30,21.20
2014,07,17,16,31,21.20
2014,07,17,16,32,21.20
2014,07,17,16,33,21.20
2014,07,17,16,34,21.20
2014,07,17,16,35,21.20
2014,07,17,16,36,21.30
2014,07,17,16,37,21.40
2014,07,17,16,38,21.50
2014,07,17,16,39,21.50
2014,07,17,16,40,21.60
2014,07,17,16,41,21.60
2014,07,17,16,42,21.60
2014,07,17,16,43,21.70
2014,07,17,16,44,21.80
2014,07,17,16,45,21.90
2014,07,17,16,46,22.10
2014,07,17,16,47,22.30
2014,07,17,16,48,22.30
2014,07,17,16,49,22.30
2014,07,17,16,50,22.50
2014,07,17,16,51,22.60
2014,07,17,16,52,22.60
2014,07,17,16,53,22.70
2014,07,17,16,54,22.80
2014,07,17,16,55,22.80
2014,07,17,16,56,22.80
2014,07,17,16,57,22.80
2014,07,17,16,58,22.80
2014,07,17,16,59,22.80
2014,07,17,17,00,22.80
2014,07,17,17,01,22.80
2014,07,17,17,02,22.80
2014,07,17,17,03,22.70
2014,07,17,17,04,22.70
2014,07,17,17,05,22.80
2014,07,17,17,06,22.80
2014,07,17,17,07,22.90
2014,07,17,17,08,22.90
2014,07,17,17,09,23.00
2014,07,17,17,10,23.00
2014,07,17,17,11,23.00
2014,07,17,17,12,23.00
2014,07,17,17,13,22.90
2014,07,17,17,14,22.80
2014,07,17,17,15,22.80
2014,07,17,17,16,22.80
2014,07,17,17,17,22.80
2014,07,17,17,18,22.80
2014,07,17,17,19,22.80